OpenBCM V1.13 (Linux)

Packet Radio Mailbox

DB0FHN

[JN59NK Nuernberg]

 Login: GUEST





  
I6KZR  > KEPLER   20.01.03 22:55l 1474 Lines 39574 Bytes #999 (0) @ WW
BID : 19555_IK6WID
Read: DB0FHN GUEST
Subj: Old Istantrak Keplerians #020
Path: DB0FHN<DB0RGB<DB0MRW<OK0PKL<OK0PCC<OK0NAG<OK0PPL<RZ6HXA<SP7MGD<IK6PYS<
      IK6ZDE<I6ZLO<IK6WID
Sent: 030120/2101Z @:IK6WID.#AP.IMAR.ITA.EU #:19555 [MONTE URANO]  FBB7.00i
From: I6KZR@IK6WID.#AP.IMAR.ITA.EU
To  : KEPLER@WW


Satellite: OSCAR 7
Catalog number: 07530
Epoch time:      103019.12574091
Element set:     143 
Inclination:      101.7685 deg
RA of node:        67.1930 deg
Eccentricity:    0.0012560
Arg of perigee:   137.3044 deg
Mean anomaly:     222.9006 deg
Mean motion:   12.53563662 rev/day
Decay rate:   -2.9000E-007 rev/day^2
Epoch rev:           28937
Checksum:              278

Satellite: GOES 2
Catalog number: 10061
Epoch time:      103018.50465539
Element set:     58 
Inclination:       14.1247 deg
RA of node:        13.6816 deg
Eccentricity:    0.0013894
Arg of perigee:   196.7054 deg
Mean anomaly:     163.2923 deg
Mean motion:    0.99393389 rev/day
Decay rate:    3.7000E-007 rev/day^2
Epoch rev:            3852
Checksum:              295

Satellite: GOES 3
Catalog number: 10953
Epoch time:      103019.02085439
Element set:     895 
Inclination:       13.3959 deg
RA of node:        17.4657 deg
Eccentricity:    0.0004623
Arg of perigee:   337.6482 deg
Mean anomaly:      22.3816 deg
Mean motion:    1.00278270 rev/day
Decay rate:   -8.6000E-007 rev/day^2
Epoch rev:            4319
Checksum:              292

Satellite: GOES 6
Catalog number: 14050
Epoch time:      103016.14732176
Element set:     414 
Inclination:       10.3570 deg
RA of node:        35.6987 deg
Eccentricity:    0.0003031
Arg of perigee:   351.7582 deg
Mean anomaly:       8.3301 deg
Mean motion:    1.00292235 rev/day
Decay rate:    6.7000E-007 rev/day^2
Epoch rev:           13030
Checksum:              233

Satellite: OSCAR 10
Catalog number: 14129
Epoch time:      103013.46521539
Element set:     911 
Inclination:       25.8708 deg
RA of node:       170.2888 deg
Eccentricity:    0.6042226
Arg of perigee:   318.8494 deg
Mean anomaly:       8.5240 deg
Mean motion:    2.05869613 rev/day
Decay rate:   -3.1300E-006 rev/day^2
Epoch rev:           11932
Checksum:              367

Satellite: OSCAR 11 (UoSA
Catalog number: 14781
Epoch time:      103020.56705089
Element set:     49 
Inclination:       98.1133 deg
RA of node:       354.2780 deg
Eccentricity:    0.0008815
Arg of perigee:   311.4589 deg
Mean anomaly:      48.5859 deg
Mean motion:   14.77909745 rev/day
Decay rate:    2.2550E-005 rev/day^2
Epoch rev:            1195
Checksum:              327

Satellite: NOAA 10
Catalog number: 16969
Epoch time:      103019.96024157
Element set:     632 
Inclination:       98.7260 deg
RA of node:        14.1366 deg
Eccentricity:    0.0012526
Arg of perigee:   169.5440 deg
Mean anomaly:     190.6002 deg
Mean motion:   14.27052476 rev/day
Decay rate:    2.6699E-006 rev/day^2
Epoch rev:           84968
Checksum:              325

Satellite: GOES 7
Catalog number: 17561
Epoch time:      103013.52827387
Element set:     810 
Inclination:        7.5470 deg
RA of node:        55.7264 deg
Eccentricity:    0.0004064
Arg of perigee:   288.6625 deg
Mean anomaly:     149.4031 deg
Mean motion:    1.00317770 rev/day
Decay rate:    1.1600E-006 rev/day^2
Epoch rev:            4138
Checksum:              275

Satellite: COSMOS 1861
Catalog number: 18129
Epoch time:      103019.04264408
Element set:     193 
Inclination:       82.9246 deg
RA of node:       169.1255 deg
Eccentricity:    0.0011127
Arg of perigee:   319.2729 deg
Mean anomaly:      40.7590 deg
Mean motion:   13.72697821 rev/day
Decay rate:    9.0999E-007 rev/day^2
Epoch rev:           78032
Checksum:              338

Satellite: EUTELSAT 1-F4 
Catalog number: 18351
Epoch time:      103016.60000000
Element set:     28 
Inclination:        7.0610 deg
RA of node:        58.7710 deg
Eccentricity:    0.0010065
Arg of perigee:   125.6900 deg
Mean anomaly:     263.2870 deg
Mean motion:    0.98688648 rev/day
Decay rate:   -1.3400E-006 rev/day^2
Epoch rev:            4235
Checksum:              253

Satellite: NOAA 11
Catalog number: 19531
Epoch time:      103019.94480295
Element set:     470 
Inclination:       98.9052 deg
RA of node:       101.4200 deg
Eccentricity:    0.0010925
Arg of perigee:   287.7021 deg
Mean anomaly:      72.2958 deg
Mean motion:   14.14523548 rev/day
Decay rate:    2.7700E-006 rev/day^2
Epoch rev:           73861
Checksum:              296

Satellite: ASTRA 1A
Catalog number: 19688
Epoch time:      103017.81495582
Element set:     558 
Inclination:        1.3145 deg
RA of node:        95.0963 deg
Eccentricity:    0.0003992
Arg of perigee:   194.8757 deg
Mean anomaly:     125.4504 deg
Mean motion:    1.00274781 rev/day
Decay rate:    4.8999E-007 rev/day^2
Epoch rev:            3187
Checksum:              339

Satellite: OSCAR 14 (UOSA
Catalog number: 20437
Epoch time:      103019.71699779
Element set:     145 
Inclination:       98.2776 deg
RA of node:        64.7507 deg
Eccentricity:    0.0010137
Arg of perigee:   294.7213 deg
Mean anomaly:      65.2919 deg
Mean motion:   14.31227785 rev/day
Decay rate:    2.3899E-006 rev/day^2
Epoch rev:           67822
Checksum:              352

Satellite: OSCAR 15 (UOSA
Catalog number: 20438
Epoch time:      103017.75600280
Element set:     763 
Inclination:       98.2521 deg
RA of node:        52.1455 deg
Eccentricity:    0.0009416
Arg of perigee:   313.1617 deg
Mean anomaly:      46.8776 deg
Mean motion:   14.30188817 rev/day
Decay rate:    1.6100E-006 rev/day^2
Epoch rev:           67761
Checksum:              409

Satellite: OSCAR 16 (PACS
Catalog number: 20439
Epoch time:      103018.19900634
Element set:     839 
Inclination:       98.3233 deg
RA of node:        74.8038 deg
Eccentricity:    0.0010447
Arg of perigee:   305.7828 deg
Mean anomaly:      54.2381 deg
Mean motion:   14.31459124 rev/day
Decay rate:    2.8100E-006 rev/day^2
Epoch rev:           67804
Checksum:              303

Satellite: OSCAR 17 (DOVE
Catalog number: 20440
Epoch time:      103020.22068365
Element set:     721 
Inclination:       98.3416 deg
RA of node:        80.5671 deg
Eccentricity:    0.0010757
Arg of perigee:   299.5483 deg
Mean anomaly:      60.4623 deg
Mean motion:   14.31737075 rev/day
Decay rate:    2.9200E-006 rev/day^2
Epoch rev:           67840
Checksum:              294

Satellite: OSCAR 18 (WEBE
Catalog number: 20441
Epoch time:      103020.55803274
Element set:     992 
Inclination:       98.3398 deg
RA of node:        80.1209 deg
Eccentricity:    0.0011051
Arg of perigee:   298.4837 deg
Mean anomaly:      61.5236 deg
Mean motion:   14.31542073 rev/day
Decay rate:    2.5300E-006 rev/day^2
Epoch rev:           67843
Checksum:              293

Satellite: OSCAR 19 (LUSA
Catalog number: 20442
Epoch time:      103019.70111332
Element set:     943 
Inclination:       98.3535 deg
RA of node:        82.2684 deg
Eccentricity:    0.0011507
Arg of perigee:   300.2490 deg
Mean anomaly:      59.7551 deg
Mean motion:   14.31704389 rev/day
Decay rate:    2.7799E-006 rev/day^2
Epoch rev:           67836
Checksum:              314

Satellite: JAS 1B (FUJI 2
Catalog number: 20480
Epoch time:      103018.90847156
Element set:     456 
Inclination:       99.0409 deg
RA of node:       347.4266 deg
Eccentricity:    0.0540895
Arg of perigee:    73.3079 deg
Mean anomaly:     292.6655 deg
Mean motion:   12.83328294 rev/day
Decay rate:   -7.9999E-008 rev/day^2
Epoch rev:           60658
Checksum:              368

Satellite: HST
Catalog number: 20580
Epoch time:      103019.84213198
Element set:     302 
Inclination:       28.4649 deg
RA of node:       231.1729 deg
Eccentricity:    0.0003896
Arg of perigee:   315.2574 deg
Mean anomaly:     160.1443 deg
Mean motion:   14.97694237 rev/day
Decay rate:    2.1660E-005 rev/day^2
Epoch rev:           49817
Checksum:              309

Satellite: EUTELSAT 2-F1
Catalog number: 20777
Epoch time:      103016.98027935
Element set:     17 
Inclination:        3.4236 deg
RA of node:        84.8341 deg
Eccentricity:    0.0001209
Arg of perigee:   164.5241 deg
Mean anomaly:     295.5979 deg
Mean motion:    1.00271905 rev/day
Decay rate:   -8.6000E-007 rev/day^2
Epoch rev:            2577
Checksum:              292

Satellite: FENGYUN 1B
Catalog number: 20788
Epoch time:      103019.56300415
Element set:     861 
Inclination:       99.0241 deg
RA of node:         2.0439 deg
Eccentricity:    0.0015384
Arg of perigee:   315.0255 deg
Mean anomaly:      44.9660 deg
Mean motion:   14.02140437 rev/day
Decay rate:    5.3999E-007 rev/day^2
Epoch rev:           63333
Checksum:              286

Satellite: EUTELSAT 2-F2
Catalog number: 21056
Epoch time:      103018.98974700
Element set:     611 
Inclination:        2.6576 deg
RA of node:        88.1748 deg
Eccentricity:    0.0002556
Arg of perigee:   220.7869 deg
Mean anomaly:     213.8256 deg
Mean motion:    1.00277988 rev/day
Decay rate:    1.2900E-006 rev/day^2
Epoch rev:            3157
Checksum:              309

Satellite: INFORMATOR 1
Catalog number: 21087
Epoch time:      103019.43093742
Element set:     592 
Inclination:       82.9414 deg
RA of node:       339.7215 deg
Eccentricity:    0.0035443
Arg of perigee:   337.3213 deg
Mean anomaly:      22.6374 deg
Mean motion:   13.74923211 rev/day
Decay rate:    9.8999E-007 rev/day^2
Epoch rev:           60074
Checksum:              410

Satellite: COSMOS 2123
Catalog number: 21089
Epoch time:      103020.56639926
Element set:     484 
Inclination:       82.9210 deg
RA of node:       202.8911 deg
Eccentricity:    0.0030264
Arg of perigee:     9.7212 deg
Mean anomaly:     350.4519 deg
Mean motion:   13.74401217 rev/day
Decay rate:    9.2999E-007 rev/day^2
Epoch rev:           59980
Checksum:              415

